Location: Caltech
(34.1382°N, 118.1253°W)
Time: 05:54:46
(UTC-08:00)

Iridium 95 - Visible Passes

Search period start: 28 February 2015 00:00
Search period end: 10 March 2015 01:00
Orbit: 776 x 779 km, 86.4° (Epoch: 27 February)

Date Brightness Start Highest point End Pass type
(mag) Time Alt. Az. Time Alt. Az. Time Alt. Az.
28 Feb 6.4 18:44:32 10° NNE 18:48:49 26° E 18:53:11 10° SE visible
28 Feb 7.4 20:25:04 10° NNW 20:29:32 28° W 20:33:51 10° SW visible
01 Mar 7.1 18:12:32 10° NE 18:14:56 14° ENE 18:17:39 10° ESE visible
01 Mar 6.1 19:51:02 10° NNW 19:56:09 55° W 20:01:11 10° SSW visible
02 Mar 5.4 19:17:25 10° N 19:22:39 77° E 19:27:52 10° S visible
03 Mar 5.9 18:44:13 10° NNE 18:49:03 39° E 18:53:55 10° SSE visible
03 Mar 8.0 20:25:49 10° NW 20:29:31 19° W 20:33:01 10° SW visible
04 Mar 6.7 18:11:32 10° NNE 18:15:16 20° ENE 18:19:10 10° SE visible
04 Mar 7.0 19:51:24 10° NNW 19:56:10 36° W 20:00:52 10° SSW visible
05 Mar 5.7 19:17:32 10° N 19:22:44 72° W 19:27:55 10° S visible
06 Mar 5.5 18:44:04 10° N 18:49:13 58° E 18:54:21 10° SSE visible
06 Mar 8.6 20:27:09 10° NW 20:29:29 13° W 20:31:29 10° WSW visible
07 Mar 6.3 18:11:01 10° NNE 18:15:33 30° E 18:20:07 10° SE visible
07 Mar 7.8 19:51:56 10° NNW 19:56:10 25° W 20:00:16 10° SW visible
08 Mar 6.6 20:17:46 10° NNW 20:22:47 47° W 20:27:45 10° SSW visible
09 Mar 5.5 19:44:05 10° N 19:49:19 87° E 19:54:33 10° S visible
